GFSNE_prec_cthk_207.txt.gz
RH
64 57 61 82 72 89 91 88 90 87 85 83 77 65 58 54 49 53 55 49 50 48 48 46 39 34 31 28 27 27 29 31 31 29 32 35 38 39
70 62 63 68 82 82 85 81 89 78 74 75 66 62 62 61 59 52 56 64 62 54 47 41 33 33 33 32 29 26 26 28 33 35 37 35 33 33
76 70 71 63 73 86 94 94 88 79 82 69 62 58 59 57 57 60 62 59 64 57 47 40 37 33 33 35 33 31 32 34 38 39 35 35 35 37
86 69 69 78 75 90 98 98 96 96 87 75 74 64 60 54 54 54 49 49 48 41 32 36 33 31 30 35 36 33 38 41 38 39 37 35 35 38
82 90 94 96 88 97 98 97 96 93 89 81 81 66 57 58 53 51 46 40 36 33 33 34 37 39 40 41 40 41 41 40 41 39 40 41 38 40
91 84 87 92 85 93 96 96 94 91 86 83 79 63 58 55 51 48 46 43 41 40 42 47 45 45 45 42 42 45 45 46 46 47 42 39 38 39
98 94 95 96 90 98 98 90 96 89 89 82 76 74 58 45 39 35 41 43 42 44 45 43 40 42 46 50 51 55 55 51 47 43 38 39 40 38
89 90 94 98 99 96 93 92 78 70 67 69 67 58 51 49 48 45 42 45 42 44 44 43 48 56 60 57 53 52 50 46 42 38 35 31 31 34
88 90 92 93 90 88 79 68 65 61 60 51 41 45 52 43 46 51 48 44 45 53 56 59 65 62 59 56 51 47 43 39 36 34 32 29 33 35
79 80 86 94 85 73 64 56 52 51 48 49 50 52 47 49 53 60 61 63 67 72 75 74 63 59 57 52 46 42 41 39 38 35 32 29 27 21
78 79 77 80 79 69 66 61 63 58 59 61 64 68 71 71 75 80 82 82 78 70 66 64 62 57 53 48 46 45 43 42 37 33 28 25 21 18
82 81 73 62 60 63 56 57 58 60 62 67 72 75 78 86 87 85 79 74 71 70 68 64 59 58 57 50 48 46 43 38 34 29 25 21 18 18
57 57 58 57 57 56 57 64 69 74 77 80 80 86 91 84 79 78 79 78 73 69 66 65 64 62 59 54 47 44 40 35 29 24 20 19 20 21
60 56 56 57 57 61 72 81 82 80 80 86 88 83 82 83 81 79 77 77 75 74 72 69 66 62 59 55 50 43 39 30 21 18 19 20 21 23
57 61 68 74 80 90 89 86 87 91 87 82 82 81 76 76 78 78 77 79 81 79 75 72 66 61 57 53 48 41 32 19 18 20 21 22 22 23
73 75 79 82 87 87 91 90 82 77 77 76 71 69 73 76 78 79 80 82 81 81 79 75 68 59 54 47 41 31 25 24 21 24 24 23 24 25
81 81 84 89 90 89 84 77 71 68 66 67 68 69 72 79 81 81 83 84 83 82 81 77 69 60 48 40 32 27 24 22 25 28 29 27 26 29
88 92 93 90 84 76 69 66 65 64 64 66 67 74 78 77 79 81 81 79 78 76 75 73 64 51 37 29 28 27 27 27 30 32 34 32 27 32
90 86 83 77 73 71 69 66 64 67 67 60 65 67 70 72 75 79 78 74 69 67 70 63 52 41 30 27 25 31 31 33 36 36 38 37 34 33
78 80 79 76 73 70 65 64 69 62 52 51 57 62 64 67 74 78 77 71 69 66 55 47 41 33 33 35 32 28 43 43 43 39 39 42 42 41
79 76 72 68 66 65 64 56 51 50 52 54 61 64 61 66 75 78 75 70 64 52 40 38 35 37 41 41 39 38 43 51 52 50 49 52 50 46
64 56 51 48 44 43 43 44 45 46 52 62 63 62 63 71 74 76 71 56 47 44 42 36 38 43 47 52 50 47 43 45 51 53 58 64 66 57
42 43 44 44 44 46 49 49 50 52 59 65 63 67 74 72 75 70 62 54 51 47 41 40 47 52 55 54 52 48 48 48 49 48 50 64 68 70

GFSNE_prec_cthk_210.txt.gz
RH
73 65 59 77 87 78 86 94 98 88 95 96 94 92 95 94 89 82 72 63 61 66 64 60 62 53 45 47 38 37 39 43 37 31 29 29 30 32
83 76 71 70 77 67 77 74 87 97 97 96 96 96 96 90 86 85 75 64 56 48 48 47 46 48 44 40 37 34 29 32 30 31 32 32 31 36
91 92 81 78 74 69 85 85 88 94 97 92 96 91 88 83 79 72 64 65 69 69 64 57 50 52 44 40 41 38 38 35 37 39 38 37 35 37
90 90 85 80 78 69 79 78 85 90 83 92 84 85 83 73 70 63 59 60 59 59 56 51 44 36 37 39 37 37 35 36 37 38 40 37 39 42
88 85 87 86 81 84 83 82 92 94 98 98 96 94 90 76 73 67 61 58 54 53 45 34 34 38 36 34 38 42 44 44 44 47 46 46 46 47
92 93 94 96 91 93 97 91 98 98 98 96 97 95 91 81 67 69 60 52 47 42 39 38 36 39 40 45 46 48 50 48 48 48 47 45 46 47
99 93 96 88 98 98 98 95 97 97 98 96 93 91 84 76 72 69 56 43 33 30 29 31 38 45 45 45 49 48 44 45 50 51 51 48 45 45
97 98 98 96 97 99 97 93 95 98 97 95 91 74 73 73 59 47 43 43 40 41 40 40 44 46 47 53 52 52 56 56 55 51 47 44 40 38
96 96 98 96 98 97 99 98 95 92 84 73 70 67 56 50 48 51 56 52 46 50 58 61 63 65 66 65 63 63 58 54 52 48 46 45 43 41
99 96 92 91 91 94 87 81 77 70 60 51 50 49 48 47 49 51 51 57 62 67 70 71 67 64 63 66 65 61 57 53 50 51 50 47 43 39
93 92 88 85 75 73 75 70 61 58 55 55 60 56 54 57 63 68 71 75 74 72 72 73 72 72 67 63 59 58 58 54 54 53 50 46 43 38
90 86 77 74 70 69 67 66 63 66 63 63 69 71 77 82 79 76 79 81 82 80 78 75 71 70 69 67 63 59 60 57 54 53 49 45 42 38
85 75 66 57 58 59 62 61 62 62 69 72 74 79 75 75 80 82 82 81 79 77 76 77 76 76 74 71 67 61 59 56 53 51 46 43 40 32
59 57 56 57 57 55 58 65 71 68 73 79 81 82 84 80 78 78 80 80 79 78 78 79 78 77 76 74 70 66 61 57 54 50 43 37 28 23
56 53 53 55 64 74 78 79 85 92 88 84 84 80 75 74 76 77 76 79 79 80 84 81 80 80 77 75 72 68 61 54 48 40 33 26 22 22
57 62 70 81 86 85 90 93 88 85 83 78 74 70 74 75 73 78 78 79 81 84 84 81 81 80 78 76 68 57 46 39 34 29 24 22 22 24
72 76 83 88 89 90 89 85 77 73 71 70 70 73 70 69 73 74 78 81 83 84 84 80 74 71 69 64 54 45 34 31 30 26 26 23 23 26
82 85 88 90 92 88 78 71 69 68 68 67 69 71 66 68 70 74 80 76 78 75 72 71 70 65 58 52 45 32 28 29 29 31 34 32 25 30
93 95 91 84 77 74 72 71 70 66 64 67 68 57 53 52 56 63 65 69 73 74 71 68 65 59 48 35 26 29 33 34 35 35 38 38 34 33
81 81 80 79 76 72 68 62 57 54 53 46 42 41 44 52 60 62 64 67 72 72 69 67 57 49 43 36 33 32 43 43 43 40 40 40 40 39
78 76 69 60 52 46 44 43 43 43 44 44 46 49 55 61 63 64 70 73 73 70 63 54 53 51 42 42 42 40 43 50 49 45 43 43 43 42
47 46 44 41 39 39 40 41 42 44 48 52 53 56 62 67 69 73 71 64 65 62 51 51 51 44 48 52 48 44 42 43 48 51 54 60 64 61
35 35 35 36 37 39 41 45 51 54 54 57 59 60 66 63 66 61 57 58 58 54 52 45 43 51 52 51 51 48 49 51 53 52 51 67 70 74

GFSNE_prec_cthk_213.txt.gz
RH
69 68 61 55 53 59 56 74 94 63 81 95 92 99 94 99 98 99 94 91 92 88 80 73 71 75 67 60 54 49 50 44 38 32 33 39 39 40
80 80 76 70 64 62 62 66 85 89 93 93 98 99 99 99 98 98 98 97 92 86 82 74 67 57 46 50 43 43 42 41 40 36 36 37 36 35
83 86 85 81 92 82 68 86 99 82 83 95 92 98 99 99 98 98 91 88 85 82 80 78 73 63 55 52 42 37 37 45 42 40 40 37 37 40
87 90 93 93 95 89 80 75 77 71 80 85 98 98 99 98 97 93 87 81 78 72 69 64 58 56 53 46 41 38 36 35 38 38 43 43 42 43
89 89 86 93 97 95 90 84 79 82 92 96 91 92 93 95 93 86 86 81 75 68 59 56 53 47 39 32 32 32 34 37 37 39 45 49 52 51
83 86 88 87 89 91 87 88 86 88 87 84 91 93 98 97 96 94 87 80 71 64 59 47 38 38 36 34 32 35 38 44 49 50 51 49 46 45
90 97 93 95 98 91 92 95 98 92 88 96 98 98 98 97 93 85 83 75 66 59 49 45 41 36 33 33 36 39 47 53 52 48 48 48 51 50
96 97 98 95 97 94 98 99 99 99 99 98 97 98 98 97 89 84 71 59 50 49 48 44 42 40 42 47 56 61 60 55 52 54 56 52 51 48
94 97 97 98 98 98 97 98 98 98 98 98 96 91 86 81 77 62 52 51 54 51 49 54 63 66 62 60 58 56 59 61 59 59 60 56 56 55
93 98 96 97 98 98 98 99 98 98 97 89 81 77 66 55 52 50 50 49 53 58 62 63 61 59 59 62 66 67 63 61 60 59 60 60 58 56
89 90 93 96 94 92 92 89 86 81 75 66 59 54 52 51 51 60 63 66 64 65 67 70 70 71 71 69 68 69 67 65 63 61 61 60 58 55
91 88 84 80 76 73 68 62 60 59 58 57 58 64 69 72 75 72 73 77 76 75 75 76 76 76 76 77 75 74 71 68 64 62 60 58 58 54
93 91 86 78 72 67 62 58 59 61 66 67 70 75 68 67 72 73 77 78 80 80 79 79 79 78 78 77 80 80 80 76 69 65 61 58 55 54
77 70 63 59 55 53 54 60 64 62 64 68 71 75 76 78 78 77 77 79 78 77 77 78 80 80 80 80 80 79 79 78 75 73 64 59 55 48
61 55 54 54 54 57 63 69 74 80 84 82 83 82 77 75 74 77 77 79 77 76 78 78 80 81 80 79 77 77 77 74 70 56 47 42 39 36
59 60 63 71 78 80 81 88 88 84 83 81 76 73 74 77 76 72 73 75 76 77 79 80 80 75 70 68 67 65 63 53 46 39 35 30 27 24
69 76 82 85 85 87 87 86 81 76 75 75 72 71 75 73 74 68 63 60 66 73 72 76 73 66 65 63 60 58 52 42 31 27 26 24 24 26
80 85 87 87 89 91 86 77 71 69 68 68 64 58 55 55 47 45 48 55 65 69 69 71 71 68 63 60 60 54 41 29 30 32 34 32 26 30
87 92 96 92 86 78 73 66 59 55 53 49 46 45 45 44 43 44 50 58 61 62 67 73 74 73 66 55 44 43 35 34 35 35 37 36 32 30
86 86 80 71 62 58 57 54 50 47 47 48 48 48 46 45 46 52 58 64 68 68 72 71 70 66 58 50 42 33 43 42 39 36 37 39 39 38
62 55 53 52 50 50 48 45 43 42 41 42 42 45 51 54 55 57 63 65 66 65 60 58 65 59 53 48 40 37 40 48 49 46 45 47 47 47
37 37 37 37 37 37 36 37 37 41 48 55 58 58 56 57 58 57 59 62 63 57 55 60 60 55 49 49 49 46 45 47 54 55 57 65 68 67
46 48 48 48 49 48 47 46 46 48 52 60 57 51 52 55 56 55 52 50 57 60 58 52 50 53 57 57 57 55 57 58 58 54 56 75 82 85

GFSNE_prec_cthk_219.txt.gz
RH
61 59 59 65 66 80 71 74 71 63 57 54 55 59 62 62 65 68 77 76 85 86 94 93 90 92 97 92 93 86 77 76 71 68 65 64 57 57
75 73 67 63 67 68 81 80 78 76 69 63 61 56 55 58 62 68 72 80 90 97 98 98 96 95 97 91 86 80 76 69 64 63 61 59 57 54
81 81 80 77 74 77 87 87 83 82 79 75 70 61 54 67 68 74 76 86 91 97 96 92 96 94 94 88 85 78 78 77 70 61 50 45 42 43
86 87 86 86 83 82 82 89 92 89 88 88 79 74 63 69 82 93 86 90 93 92 92 97 98 96 91 86 79 77 71 64 55 46 41 41 39 39
86 94 91 94 94 89 88 94 95 96 96 96 96 83 78 79 77 88 92 97 97 95 97 96 95 94 86 83 76 69 63 49 41 38 33 31 30 30
77 86 96 98 97 94 96 98 96 98 98 98 95 92 91 90 85 89 95 89 97 98 98 97 96 91 86 79 70 60 51 44 42 41 40 39 40 41
77 76 80 89 97 98 98 96 98 99 95 96 97 95 93 90 86 90 91 90 93 97 97 97 90 82 75 62 55 52 48 45 43 47 51 52 50 48
87 86 90 92 93 91 89 93 98 97 96 96 93 89 91 92 94 92 90 93 93 97 96 89 80 65 59 54 49 45 48 52 55 54 54 57 58 59
92 93 94 91 88 96 92 96 94 94 91 91 92 92 91 94 95 96 97 98 98 97 79 68 59 57 57 59 62 62 59 56 55 56 56 56 56 56
95 91 90 93 92 93 94 96 98 98 96 95 98 98 96 97 98 98 96 91 78 66 58 59 63 64 65 65 65 65 65 67 68 65 65 65 65 66
88 88 84 85 90 93 93 97 99 98 98 98 98 98 96 91 86 74 66 61 61 65 66 69 69 71 74 77 78 76 73 72 73 74 74 72 73 73
87 88 87 81 79 87 91 94 98 95 89 85 80 73 66 62 61 62 70 74 77 76 77 77 73 70 70 72 73 77 78 78 79 78 77 77 77 74
88 84 77 73 72 71 72 71 67 68 65 63 59 63 68 74 74 74 76 74 74 74 74 76 79 78 77 76 76 80 81 81 79 79 77 76 74 69
74 70 67 67 63 67 71 71 71 70 72 75 74 72 72 76 79 81 80 78 79 80 79 77 78 78 75 75 78 79 81 81 77 73 66 60 58 55
61 60 60 61 64 65 65 67 71 74 76 78 81 84 83 80 80 77 77 80 77 76 73 69 68 68 68 68 68 67 64 65 65 63 60 57 52 49
61 66 75 78 79 82 86 87 85 82 81 81 79 75 75 74 73 70 66 59 54 52 49 49 50 52 54 59 62 62 61 54 50 46 41 37 35 31
72 76 78 82 86 86 85 84 82 79 74 66 57 50 50 52 53 51 49 47 47 48 48 48 48 50 55 59 56 55 51 46 44 40 38 33 29 27
78 81 82 84 86 86 79 65 54 50 50 51 51 50 48 46 44 45 45 47 49 52 53 53 54 55 53 53 53 51 48 49 47 40 35 32 28 31
83 84 84 77 65 57 52 50 48 46 45 43 42 41 41 42 43 44 47 49 51 54 57 59 56 54 54 52 50 53 52 49 42 38 41 41 39 37
74 59 49 44 42 42 42 42 40 40 41 42 43 43 45 49 55 61 63 61 60 56 55 57 59 60 59 59 55 52 59 53 53 49 49 49 48 46
35 35 37 40 42 42 41 41 41 40 39 39 39 42 44 46 48 51 53 54 55 55 52 53 59 62 62 63 59 54 57 63 59 56 55 57 54 49
34 34 35 36 36 40 47 49 48 45 41 37 34 32 32 33 35 38 43 47 51 55 58 61 64 65 65 65 63 60 58 58 62 61 63 71 76 71
36 36 35 38 44 44 40 30 24 22 23 24 25 28 30 34 38 42 48 52 55 58 60 62 66 68 69 69 68 65 66 62 61 64 78 83 82 83

GFSNE_prec_cthk_225.txt.gz
RH
43 46 49 52 55 54 54 60 75 82 80 75 80 68 59 52 50 52 52 50 51 53 74 90 96 97 99 98 98 98 98 90 88 85 74 68 63 65
43 46 50 51 53 58 60 62 59 73 85 86 87 88 80 65 61 56 54 62 60 62 67 69 92 90 94 98 97 98 86 91 85 80 82 74 73 73
44 46 50 55 56 60 63 68 66 65 70 92 98 98 91 82 74 67 66 63 72 68 69 76 80 87 91 92 93 86 80 82 88 85 89 82 78 71
50 53 55 59 62 65 67 76 78 79 76 79 94 98 98 98 90 79 75 71 67 64 59 64 68 75 83 87 85 88 86 89 92 92 88 83 76 74
54 57 58 62 66 68 72 78 87 91 91 86 86 93 98 97 96 88 85 81 74 69 68 68 69 75 77 77 82 85 88 91 91 90 85 82 77 72
59 62 62 72 72 69 74 81 92 98 97 92 90 92 95 99 94 98 96 96 89 84 80 81 78 82 81 83 87 91 95 94 93 93 89 82 71 60
63 62 63 66 68 72 80 90 98 98 98 98 97 96 97 97 98 98 98 99 97 93 96 93 95 93 92 90 90 91 94 92 86 79 70 65 60 55
68 69 74 75 79 83 85 91 98 98 99 98 99 98 98 98 98 98 99 98 98 95 95 98 98 98 98 98 95 91 79 73 69 65 61 57 59 60
71 71 71 74 77 81 88 89 90 94 97 98 99 95 96 98 98 98 98 96 96 92 94 95 92 94 94 93 83 76 70 70 69 67 68 68 67 68
74 70 71 72 73 76 83 87 87 93 96 95 96 96 97 95 99 98 98 95 94 94 93 92 86 84 77 74 74 74 77 77 76 75 73 72 71 70
73 72 72 72 74 76 79 87 92 93 96 98 98 99 98 96 94 96 97 98 97 92 80 76 77 80 82 83 83 82 79 76 75 74 75 75 74 72
76 68 66 67 71 72 80 83 86 92 95 93 92 93 94 91 89 88 86 82 80 79 81 83 82 81 79 78 79 79 77 76 74 73 75 79 80 77
66 65 63 60 60 58 59 61 63 67 70 71 71 73 74 74 73 75 76 77 79 79 78 78 76 75 75 74 75 76 77 76 74 73 73 75 77 76
62 60 61 60 60 61 65 66 67 68 70 72 73 73 74 73 73 73 73 74 74 75 76 77 78 77 74 72 68 65 62 61 59 59 59 61 63 62
59 60 63 68 72 76 79 80 79 78 78 78 77 74 72 73 74 74 73 70 65 62 60 56 50 48 46 45 46 48 49 50 52 53 56 55 53 50
71 73 76 80 81 79 77 76 76 75 73 69 63 56 49 45 42 41 40 40 40 42 42 41 41 42 44 46 46 48 51 50 50 46 44 38 34 35
73 75 77 78 81 82 79 69 55 46 44 44 44 43 42 41 40 40 40 40 41 42 42 43 46 48 50 49 47 49 50 46 47 48 44 37 35 36
81 82 84 84 81 67 51 43 43 43 42 39 37 37 37 38 39 40 41 42 42 43 46 48 47 46 45 44 48 48 46 44 43 44 45 44 36 39
84 84 79 64 43 36 38 40 39 37 36 37 39 39 37 36 35 35 36 38 39 41 41 39 39 40 42 42 43 49 48 48 47 45 47 46 44 43
72 60 44 36 34 34 34 36 39 43 46 43 36 31 29 28 26 26 27 29 32 34 36 39 42 46 47 49 46 43 49 50 50 47 47 48 48 46
52 41 34 34 35 36 38 42 44 36 25 22 22 21 21 22 24 26 29 35 37 38 39 41 45 48 48 49 49 48 50 55 57 56 55 57 53 56
37 33 33 37 41 44 41 30 23 22 21 20 20 21 23 25 27 30 33 34 36 40 43 45 48 50 53 54 55 55 55 56 62 66 72 76 76 69
36 39 46 46 35 25 22 22 20 18 19 21 24 27 30 33 35 36 39 42 44 46 49 51 53 56 59 63 67 68 69 69 71 74 79 82 81 80

GFSNE_prec_cthk_228.txt.gz
RH
39 40 44 43 48 48 51 52 55 52 47 51 66 68 73 73 71 66 60 54 53 52 50 53 57 67 88 95 96 98 99 98 95 95 93 91 86 78
39 39 39 44 49 50 52 55 59 61 58 57 59 66 74 78 83 83 77 66 59 56 58 55 53 58 66 76 92 93 92 98 98 97 93 87 84 77
42 44 46 47 48 51 55 60 62 65 66 65 61 65 75 86 87 88 88 87 74 64 58 57 68 67 60 70 89 95 96 97 96 97 93 90 80 74
47 46 48 49 50 54 58 62 64 67 73 71 73 72 72 79 88 98 98 98 93 78 71 65 64 70 69 69 73 80 88 94 97 97 92 94 80 76
48 49 53 54 54 57 60 67 65 67 72 76 82 86 86 88 87 95 93 98 96 88 82 78 70 68 68 69 74 71 77 81 84 90 86 80 80 86
53 54 54 55 53 60 63 65 66 69 74 86 91 94 93 92 90 91 96 99 98 95 93 88 81 80 75 73 73 74 78 80 80 81 84 85 87 83
57 54 56 59 62 66 70 71 75 78 89 91 94 97 98 99 99 94 98 97 98 99 99 98 97 93 94 93 89 90 89 88 88 91 89 86 82 74
61 60 59 62 63 66 70 73 78 79 86 93 96 97 98 98 98 98 98 98 98 98 99 98 96 97 95 97 98 98 98 98 93 85 77 72 68 65
67 63 62 63 63 64 65 68 74 77 78 88 94 98 98 94 97 98 98 98 98 98 98 99 99 99 97 98 98 96 90 86 80 76 73 72 72 72
69 65 65 64 64 68 68 70 73 78 84 88 91 92 95 96 97 95 98 98 98 98 98 98 97 94 90 85 81 75 75 77 79 80 82 83 83 83
70 67 64 63 64 69 71 74 75 77 84 89 92 94 95 95 95 96 97 97 98 97 87 81 81 85 88 88 88 87 87 85 83 81 77 77 78 79
68 66 65 63 62 60 63 67 68 74 76 76 81 85 87 87 87 89 90 85 86 84 84 86 91 91 87 83 82 81 81 80 79 78 78 76 73 70
66 62 57 54 53 54 55 57 59 62 63 64 66 67 69 70 72 74 72 73 75 76 75 74 73 74 75 76 77 77 77 76 74 72 70 70 71 70
62 61 59 60 63 65 67 68 68 69 69 71 72 73 73 72 72 72 73 74 75 76 76 74 73 71 68 62 56 51 48 46 45 47 47 48 52 55
61 64 71 77 77 75 73 72 71 72 72 71 69 68 66 64 60 55 50 47 45 43 42 41 40 41 43 43 42 43 44 46 47 47 51 51 51 49
75 79 80 77 75 74 73 72 69 65 57 47 41 38 38 38 38 38 39 39 40 41 42 43 43 43 43 45 47 48 50 47 47 48 48 45 41 39
77 78 78 78 80 76 71 64 48 38 37 37 36 36 36 37 38 39 39 40 41 41 42 43 45 46 47 47 43 40 38 38 40 42 40 37 35 35
82 83 82 79 73 64 49 38 34 34 33 34 35 37 38 38 37 36 36 38 40 40 40 38 35 33 32 30 34 35 38 39 39 39 39 40 35 37
85 80 71 65 52 40 31 29 31 35 39 41 40 33 27 26 25 24 22 23 26 28 31 33 34 35 36 36 34 41 42 40 40 39 42 42 42 40
70 68 62 46 36 31 31 35 39 40 35 25 21 20 19 19 19 21 23 28 31 31 32 34 36 39 42 43 41 41 47 48 48 47 47 47 46 46
70 56 44 34 32 35 41 39 31 23 20 18 16 17 18 20 23 25 29 31 33 33 36 39 42 45 46 47 48 47 49 55 58 58 58 60 59 61
52 42 35 38 45 40 28 23 20 16 16 17 19 22 25 29 31 32 32 34 38 41 45 48 51 53 56 60 61 61 60 63 68 71 75 75 74 69
39 41 49 43 27 23 20 16 16 18 21 24 27 30 31 32 33 35 39 43 48 53 56 58 61 65 67 70 72 70 71 74 76 77 79 81 79 78

GFSNE_prec_cthk_234.txt.gz
RH
43 43 42 40 40 43 43 45 47 44 40 36 39 42 44 43 41 41 45 45 47 49 51 53 53 54 50 46 44 44 47 55 65 98 98 81 97 97
44 45 46 45 45 45 44 43 48 48 48 46 43 44 46 46 46 47 46 47 51 50 57 58 59 62 59 57 54 51 52 52 62 72 83 93 92 97
47 48 51 50 47 46 45 46 46 47 47 46 46 47 48 50 50 52 52 52 51 56 57 65 67 70 75 76 69 67 65 72 80 92 97 98 94 98
55 55 58 55 50 50 49 47 48 48 48 48 49 51 50 51 51 53 55 57 59 58 62 66 69 78 86 82 84 86 76 70 76 90 94 92 99 98
61 60 60 58 54 51 50 48 48 46 49 51 52 51 52 54 57 65 65 64 68 70 72 72 73 81 98 96 92 91 91 87 77 77 84 90 91 92
65 65 63 59 54 53 50 50 51 52 51 51 52 55 59 63 65 65 67 71 72 76 82 88 87 87 98 99 99 96 95 89 86 86 89 88 88 83
72 71 67 61 60 58 55 51 50 52 51 52 57 59 63 65 68 70 72 75 78 81 87 92 95 91 97 98 97 98 98 96 90 91 88 87 86 84
78 74 70 65 62 60 54 52 52 52 52 56 59 60 65 66 69 70 75 78 79 80 84 91 96 95 93 97 98 98 98 98 98 98 98 97 93 94
82 76 72 69 64 62 59 57 55 57 58 61 64 69 68 69 72 75 79 81 80 83 85 88 92 96 97 97 98 98 98 98 98 98 98 98 98 97
84 78 74 70 67 67 65 62 61 62 63 64 68 69 69 71 74 77 79 81 83 84 87 88 90 92 94 97 96 94 92 91 91 91 92 91 90 88
83 78 75 73 71 66 61 59 58 59 61 62 62 60 62 66 70 74 75 78 77 78 80 85 89 91 93 94 93 92 92 95 96 96 92 90 88 86
84 78 69 62 60 57 55 54 53 53 56 58 59 59 60 60 58 58 60 63 65 66 69 71 78 78 77 77 81 82 83 84 85 86 87 86 86 86
79 72 68 70 67 65 64 63 62 66 66 64 62 62 63 63 63 64 63 60 57 54 53 55 56 59 62 64 67 69 71 72 74 75 76 75 75 73
74 77 74 72 73 71 69 71 70 67 63 60 59 58 53 42 35 31 30 30 31 32 33 35 36 37 38 37 36 36 37 38 40 40 40 41 42 42
78 75 74 78 81 80 78 76 70 65 63 61 51 40 34 30 28 28 29 30 31 33 33 34 35 35 36 37 37 39 41 43 46 47 48 48 47 47
79 79 86 86 84 84 80 73 68 66 59 46 37 29 27 28 28 29 30 30 28 25 24 25 26 27 28 29 30 31 31 32 31 30 29 28 28 29
83 88 89 89 90 83 74 70 68 56 43 38 32 30 30 25 23 21 18 16 16 15 16 17 18 19 20 21 22 26 27 28 29 28 27 26 27 29
92 92 93 91 81 72 72 70 53 43 40 33 25 19 19 20 16 14 14 15 17 18 18 18 18 19 21 24 25 28 30 31 33 35 37 35 33 36
91 94 87 75 72 74 70 53 47 44 30 16 17 20 19 16 16 16 17 19 20 20 21 23 25 27 29 31 36 40 41 43 44 46 48 49 47 47
93 78 70 73 74 71 57 54 46 21 17 18 21 21 19 18 19 20 21 22 24 27 31 32 35 36 38 42 45 46 53 54 56 57 58 60 61 60
71 69 74 75 67 57 55 41 20 18 21 24 24 23 21 21 22 23 26 29 32 33 34 37 39 42 45 47 49 50 53 59 63 64 65 66 67 68
72 75 61 53 56 54 38 24 23 24 25 26 25 24 24 25 26 29 33 34 35 38 38 42 44 46 48 50 52 53 55 61 68 70 73 72 70 71
60 54 56 56 43 19 16 16 18 22 25 27 28 29 29 29 33 36 37 39 41 41 43 45 47 49 51 53 55 55 58 62 66 70 76 81 80 77